| time (UTC) | temp F | wind direction | speed knots | gust knots | rain 1hr in | rain 24hr in | rain mn in | humidity % | barometer mb |
| 20260510115803 | 58 | 210 | 1.7 | 2.6 | 0.00 | 0.00 | 0.00 | 93 | 1011.4 |
| 20260510115306 | 58 | 155 | 1.7 | 2.6 | 0.00 | 0.00 | 0.00 | 94 | 1011.3 |
| 20260510114803 | 57 | 175 | 0.9 | 1.7 | 0.00 | 0.00 | 0.00 | 94 | 1011.3 |
| 20260510114304 | 57 | 175 | 0.0 | 0.9 | 0.00 | 0.00 | 0.00 | 94 | 1011.2 |
| 20260510113803 | 56 | 175 | 0.0 | 0.9 | 0.00 | 0.00 | 0.00 | 94 | 1011.1 |
| 20260510113303 | 56 | 175 | 0.9 | 1.7 | 0.00 | 0.00 | 0.00 | 94 | 1011.1 |
| 20260510111804 | 54 | 185 | 0.0 | 1.7 | 0.00 | 0.00 | 0.00 | 94 | 1010.9 |
| 20260510111303 | 54 | 185 | 0.9 | 1.7 | 0.00 | 0.00 | 0.00 | 94 | 1010.9 |
| 20260510110803 | 54 | 359 | 0.9 | 1.7 | 0.00 | 0.00 | 0.00 | 94 | 1010.8 |
| 20260510110303 | 53 | 359 | 0.0 | 1.7 | 0.00 | 0.00 | 0.00 | 94 | 1010.7 |
| 20260510105803 | 53 | 359 | 0.0 | 0.9 | 0.00 | 0.00 | 0.00 | 94 | 1010.7 |
| 20260510105306 | 53 | 359 | 0.9 | 1.7 | 0.00 | 0.00 | 0.00 | 94 | 1010.5 |
| 20260510104804 | 52 | 359 | 0.9 | 1.7 | 0.00 | 0.00 | 0.00 | 93 | 1010.5 |
| 20260510104304 | 52 | 359 | 0.9 | 1.7 | 0.00 | 0.00 | 0.00 | 93 | 1010.4 |
| 20260510103303 | 52 | 359 | 1.7 | 2.6 | 0.00 | 0.00 | 0.00 | 93 | 1010.3 |
| 20260510102803 | 52 | 4 | 1.7 | 2.6 | 0.00 | 0.00 | 0.00 | 92 | 1010.2 |
| 20260510101804 | 52 | 175 | 0.0 | 0.0 | 0.00 | 0.00 | 0.00 | 92 | 1009.9 |
| 20260510101303 | 52 | 175 | 0.0 | 0.0 | 0.00 | 0.00 | 0.00 | 92 | 1009.9 |
| 20260510100803 | 52 | 175 | 0.0 | 0.0 | 0.00 | 0.00 | 0.00 | 92 | 1009.8 |
| 20260510100303 | 52 | 175 | 0.0 | 1.7 | 0.00 | 0.00 | 0.00 | 92 | 1009.8 |
| 20260510095803 | 52 | 173 | 0.9 | 2.6 | 0.00 | 0.00 | 0.00 | 92 | 1009.8 |
| 20260510095305 | 52 | 335 | 0.9 | 1.7 | 0.00 | 0.00 | 0.00 | 92 | 1009.8 |
| 20260510094803 | 53 | 335 | 0.0 | 1.7 | 0.00 | 0.00 | 0.00 | 92 | 1009.7 |
| 20260510093304 | 53 | 352 | 1.7 | 4.3 | 0.00 | 0.00 | 0.00 | 92 | 1009.7 |
| 20260510092803 | 53 | 350 | 1.7 | 2.6 | 0.00 | 0.00 | 0.00 | 92 | 1009.7 |
| 20260510091803 | 53 | 5 | 0.9 | 1.7 | 0.00 | 0.00 | 0.00 | 92 | 1009.7 |
| 20260510090803 | 53 | 346 | 0.9 | 2.6 | 0.00 | 0.00 | 0.00 | 91 | 1009.7 |
| 20260510085804 | 53 | 346 | 0.9 | 2.6 | 0.00 | 0.00 | 0.00 | 91 | 1009.7 |
| 20260510084803 | 53 | 343 | 2.6 | 6.1 | 0.00 | 0.00 | 0.00 | 91 | 1009.6 |
| 20260510084303 | 53 | 2 | 0.0 | 2.6 | 0.00 | 0.00 | 0.00 | 91 | 1009.6 |
| 20260510083803 | 53 | 344 | 1.7 | 4.3 | 0.00 | 0.00 | 0.00 | 91 | 1009.6 |
| 20260510083303 | 53 | 0 | 2.6 | 4.3 | 0.00 | 0.00 | 0.00 | 91 | 1009.7 |
| 20260510082803 | 53 | 353 | 1.7 | 2.6 | 0.00 | 0.00 | 0.00 | 90 | 1009.5 |
| 20260510082306 | 53 | 310 | 1.7 | 2.6 | 0.00 | 0.00 | 0.00 | 90 | 1009.4 |
| 20260510081803 | 53 | 349 | 0.9 | 2.6 | 0.00 | 0.00 | 0.00 | 90 | 1009.3 |
| 20260510081304 | 53 | 349 | 0.9 | 1.7 | 0.00 | 0.00 | 0.00 | 90 | 1009.3 |
| 20260510080804 | 53 | 349 | 0.9 | 1.7 | 0.00 | 0.00 | 0.00 | 90 | 1009.2 |
| 20260510080304 | 53 | 349 | 1.7 | 2.6 | 0.00 | 0.00 | 0.00 | 90 | 1009.1 |
| 20260510075804 | 54 | 349 | 0.9 | 1.7 | 0.00 | 0.00 | 0.00 | 90 | 1009.1 |
| 20260510075306 | 54 | 349 | 1.7 | 1.7 | 0.00 | 0.00 | 0.00 | 90 | 1009.0 |
| 20260510074803 | 54 | 349 | 0.9 | 1.7 | 0.00 | 0.00 | 0.00 | 89 | 1008.9 |
| 20260510073803 | 54 | 349 | 0.0 | 0.9 | 0.00 | 0.00 | 0.00 | 89 | 1008.8 |
| 20260510073303 | 54 | 349 | 0.9 | 1.7 | 0.00 | 0.00 | 0.00 | 89 | 1008.7 |
| 20260510072306 | 54 | 349 | 1.7 | 4.3 | 0.00 | 0.00 | 0.00 | 89 | 1008.6 |
| 20260510071803 | 54 | 349 | 0.0 | 0.0 | 0.00 | 0.00 | 0.00 | 88 | 1008.6 |
| 20260510070303 | 55 | 349 | 0.0 | 0.9 | 0.00 | 0.00 | 0.00 | 88 | 1008.6 |
| 20260510065803 | 55 | 349 | 0.0 | 1.7 | 0.00 | 0.00 | 0.00 | 88 | 1008.6 |
| 20260510065306 | 55 | 349 | 1.7 | 2.6 | 0.00 | 0.00 | 0.00 | 88 | 1008.5 |
| 20260510064803 | 55 | 349 | 1.7 | 2.6 | 0.00 | 0.00 | 0.00 | 87 | 1008.5 |
| 20260510064303 | 55 | 349 | 0.9 | 1.7 | 0.00 | 0.00 | 0.00 | 87 | 1008.4 |
| 20260510063803 | 55 | 349 | 0.9 | 1.7 | 0.00 | 0.00 | 0.00 | 87 | 1008.3 |
| 20260510062803 | 56 | 349 | 0.9 | 1.7 | 0.00 | 0.00 | 0.00 | 87 | 1008.3 |
| 20260510062306 | 56 | 349 | 0.9 | 2.6 | 0.00 | 0.00 | 0.00 | 87 | 1008.3 |
| 20260510061804 | 56 | 349 | 0.9 | 1.7 | 0.00 | 0.00 | 0.00 | 87 | 1008.4 |
| 20260510061303 | 56 | 349 | 0.9 | 1.7 | 0.00 | 0.00 | 0.00 | 87 | 1008.4 |
| 20260510060804 | 56 | 349 | 0.9 | 2.6 | 0.00 | 0.00 | 0.00 | 87 | 1008.4 |
| 20260510060305 | 56 | 9 | 2.6 | 2.6 | 0.00 | 0.00 | 0.00 | 87 | 1008.3 |
| 20260510055804 | 56 | 343 | 0.0 | 0.0 | 0.00 | 0.00 | 0.00 | 87 | 1008.5 |
| 20260510055306 | 57 | 343 | 0.9 | 2.6 | 0.00 | 0.00 | 0.00 | 87 | 1008.5 |
| 20260510054804 | 57 | 343 | 0.9 | 1.7 | 0.00 | 0.00 | 0.00 | 86 | 1008.6 |
| 20260510054304 | 57 | 343 | 0.9 | 2.6 | 0.00 | 0.00 | 0.00 | 86 | 1008.6 |
| 20260510053804 | 57 | 351 | 1.7 | 2.6 | 0.00 | 0.00 | 0.00 | 86 | 1008.6 |
| 20260510053303 | 57 | 348 | 1.7 | 2.6 | 0.00 | 0.00 | 0.00 | 86 | 1008.6 |
| 20260510052803 | 57 | 355 | 2.6 | 2.6 | 0.00 | 0.00 | 0.00 | 85 | 1008.6 |
| 20260510052306 | 57 | 357 | 1.7 | 2.6 | 0.00 | 0.00 | 0.00 | 85 | 1008.6 |
| 20260510051803 | 57 | 357 | 1.7 | 2.6 | 0.00 | 0.00 | 0.00 | 85 | 1008.5 |
| 20260510051303 | 58 | 342 | 1.7 | 2.6 | 0.00 | 0.00 | 0.00 | 85 | 1008.5 |
| 20260510050803 | 58 | 356 | 1.7 | 2.6 | 0.00 | 0.00 | 0.00 | 85 | 1008.6 |
| 20260510045803 | 58 | 73 | 2.6 | 2.6 | 0.00 | 0.00 | 0.00 | 84 | 1008.6 |
| 20260510045306 | 58 | 73 | 0.9 | 2.6 | 0.00 | 0.00 | 0.00 | 84 | 1008.6 |
| 20260510044303 | 58 | 73 | 0.0 | 0.0 | 0.00 | 0.00 | 0.00 | 84 | 1008.6 |
| 20260510043803 | 59 | 73 | 0.0 | 0.0 | 0.00 | 0.00 | 0.00 | 84 | 1008.7 |
| 20260510043303 | 59 | 73 | 0.0 | 0.0 | 0.00 | 0.00 | 0.00 | 83 | 1008.6 |
| 20260510042804 | 59 | 73 | 0.0 | 0.0 | 0.00 | 0.00 | 0.00 | 83 | 1008.7 |
| 20260510041804 | 59 | 73 | 0.0 | 0.0 | 0.00 | 0.00 | 0.00 | 83 | 1008.6 |
| 20260510040803 | 60 | 73 | 0.0 | 0.0 | 0.00 | 0.00 | 0.00 | 83 | 1008.6 |
| 20260510040303 | 60 | 73 | 0.0 | 0.0 | 0.00 | 0.00 | 0.00 | 83 | 1008.6 |
| 20260510035804 | 60 | 73 | 0.0 | 0.0 | 0.00 | 0.00 | 0.00 | 82 | 1008.6 |
| 20260510035306 | 60 | 73 | 0.0 | 0.0 | 0.00 | 0.00 | 0.00 | 82 | 1008.6 |
| 20260510034804 | 60 | 73 | 0.9 | 2.6 | 0.00 | 0.00 | 0.00 | 82 | 1008.5 |
| 20260510034304 | 60 | 73 | 0.9 | 2.6 | 0.00 | 0.00 | 0.00 | 82 | 1008.5 |
| 20260510033803 | 60 | 73 | 0.0 | 0.0 | 0.00 | 0.00 | 0.00 | 82 | 1008.5 |
| 20260510033303 | 60 | 73 | 0.0 | 0.9 | 0.00 | 0.00 | 0.00 | 82 | 1008.5 |
| 20260510032306 | 60 | 73 | 0.0 | 1.7 | 0.00 | 0.00 | 0.00 | 82 | 1008.5 |
| 20260510031803 | 61 | 73 | 0.9 | 2.6 | 0.00 | 0.00 | 0.00 | 82 | 1008.6 |
| 20260510031304 | 61 | 73 | 0.9 | 2.6 | 0.00 | 0.00 | 0.00 | 82 | 1008.5 |
| 20260510030804 | 61 | 73 | 0.9 | 1.7 | 0.00 | 0.00 | 0.00 | 81 | 1008.4 |
| 20260510030303 | 61 | 73 | 0.9 | 2.6 | 0.00 | 0.00 | 0.00 | 81 | 1008.4 |
| 20260510025803 | 61 | 73 | 1.7 | 2.6 | 0.00 | 0.00 | 0.00 | 81 | 1008.4 |
| 20260510025306 | 61 | 73 | 1.7 | 2.6 | 0.00 | 0.00 | 0.00 | 81 | 1008.4 |
| 20260510024804 | 61 | 73 | 0.9 | 2.6 | 0.00 | 0.00 | 0.00 | 81 | 1008.4 |
| 20260510024303 | 61 | 73 | 1.7 | 2.6 | 0.00 | 0.00 | 0.00 | 80 | 1008.4 |
| 20260510023803 | 62 | 87 | 0.9 | 2.6 | 0.00 | 0.00 | 0.00 | 80 | 1008.3 |
| 20260510023303 | 62 | 96 | 1.7 | 5.2 | 0.00 | 0.00 | 0.00 | 80 | 1008.3 |
| 20260510022306 | 62 | 72 | 1.7 | 2.6 | 0.00 | 0.00 | 0.00 | 80 | 1008.3 |
| 20260510021803 | 62 | 78 | 1.7 | 6.1 | 0.00 | 0.00 | 0.00 | 79 | 1008.4 |
| 20260510021303 | 62 | 78 | 1.7 | 6.1 | 0.00 | 0.00 | 0.00 | 79 | 1008.4 |
| 20260510020803 | 62 | 84 | 1.7 | 5.2 | 0.00 | 0.00 | 0.00 | 79 | 1008.3 |
| 20260510015803 | 63 | 81 | 1.7 | 7.0 | 0.00 | 0.00 | 0.00 | 78 | 1008.3 |
| 20260510015306 | 63 | 69 | 2.6 | 4.3 | 0.00 | 0.00 | 0.00 | 78 | 1008.3 |
| 20260510014803 | 63 | 74 | 2.6 | 4.3 | 0.00 | 0.00 | 0.00 | 78 | 1008.2 |
| 20260510014303 | 63 | 105 | 1.7 | 5.2 | 0.00 | 0.00 | 0.00 | 78 | 1008.1 |
| 20260510013803 | 63 | 82 | 2.6 | 7.0 | 0.00 | 0.00 | 0.00 | 77 | 1008.2 |
| 20260510013303 | 63 | 87 | 2.6 | 7.0 | 0.00 | 0.00 | 0.00 | 77 | 1008.1 |
| 20260510012803 | 64 | 100 | 2.6 | 5.2 | 0.00 | 0.00 | 0.00 | 76 | 1008.1 |
| 20260510012306 | 64 | 146 | 1.7 | 4.3 | 0.00 | 0.00 | 0.00 | 75 | 1008.0 |
| 20260510011803 | 64 | 129 | 1.7 | 2.6 | 0.00 | 0.00 | 0.00 | 74 | 1007.8 |
| 20260510011303 | 64 | 101 | 2.6 | 5.2 | 0.00 | 0.00 | 0.00 | 74 | 1007.7 |
| 20260510010803 | 64 | 146 | 1.7 | 2.6 | 0.00 | 0.00 | 0.00 | 73 | 1007.7 |
| 20260510010304 | 64 | 159 | 1.7 | 2.6 | 0.00 | 0.00 | 0.00 | 73 | 1007.6 |
| 20260510005804 | 65 | 156 | 1.7 | 2.6 | 0.00 | 0.00 | 0.00 | 72 | 1007.6 |
| 20260510004803 | 65 | 151 | 2.6 | 4.3 | 0.00 | 0.00 | 0.00 | 71 | 1007.5 |
| 20260510004303 | 65 | 120 | 1.7 | 2.6 | 0.00 | 0.00 | 0.00 | 71 | 1007.5 |
| 20260510003804 | 66 | 121 | 1.7 | 2.6 | 0.00 | 0.00 | 0.00 | 71 | 1007.3 |
| 20260510003303 | 66 | 139 | 1.7 | 4.3 | 0.00 | 0.00 | 0.00 | 70 | 1007.3 |
| 20260510002306 | 66 | 118 | 2.6 | 2.6 | 0.00 | 0.00 | 0.00 | 70 | 1007.3 |
| 20260510001803 | 67 | 118 | 1.7 | 2.6 | 0.00 | 0.00 | 0.00 | 69 | 1007.3 |
| 20260510001303 | 67 | 106 | 0.9 | 2.6 | 0.00 | 0.00 | 0.00 | 69 | 1007.2 |
| 20260510000803 | 67 | 120 | 1.7 | 2.6 | 0.00 | 0.00 | 0.00 | 69 | 1007.2 |
| 20260510000304 | 67 | 106 | 1.7 | 2.6 | 0.00 | 0.00 | 0.00 | 69 | 1007.2 |
| 20260509235804 | 67 | 110 | 4.3 | 5.2 | 0.00 | 0.00 | 0.00 | 69 | 1007.2 |
| 20260509235306 | 68 | 113 | 1.7 | 5.2 | 0.00 | 0.00 | 0.00 | 68 | 1007.1 |
| 20260509234803 | 68 | 118 | 1.7 | 6.1 | 0.00 | 0.00 | 0.00 | 68 | 1007.0 |
| 20260509234303 | 68 | 114 | 2.6 | 6.1 | 0.00 | 0.00 | 0.00 | 68 | 1007.0 |
| 20260509233303 | 68 | 101 | 2.6 | 5.2 | 0.00 | 0.00 | 0.00 | 67 | 1007.0 |
| 20260509232805 | 68 | 131 | 3.5 | 7.0 | 0.00 | 0.00 | 0.00 | 67 | 1006.8 |
| 20260509232306 | 69 | 111 | 2.6 | 5.2 | 0.00 | 0.00 | 0.00 | 66 | 1006.8 |
| 20260509230804 | 69 | 141 | 2.6 | 4.3 | 0.00 | 0.00 | 0.00 | 65 | 1006.7 |
| 20260509230304 | 69 | 153 | 2.6 | 5.2 | 0.00 | 0.00 | 0.00 | 65 | 1006.7 |
| 20260509225306 | 69 | 144 | 2.6 | 2.6 | 0.00 | 0.00 | 0.00 | 64 | 1006.7 |
| 20260509224303 | 69 | 165 | 2.6 | 2.6 | 0.00 | 0.00 | 0.00 | 64 | 1006.7 |
| 20260509223303 | 69 | 102 | 3.5 | 6.1 | 0.00 | 0.00 | 0.00 | 63 | 1006.8 |
| 20260509222306 | 70 | 94 | 4.3 | 7.0 | 0.00 | 0.00 | 0.00 | 63 | 1006.9 |
| 20260509221803 | 70 | 145 | 2.6 | 4.3 | 0.00 | 0.00 | 0.00 | 63 | 1006.8 |
| 20260509220803 | 70 | 104 | 4.3 | 7.8 | 0.00 | 0.00 | 0.00 | 63 | 1006.9 |
| 20260509220303 | 70 | 133 | 4.3 | 10.4 | 0.00 | 0.00 | 0.00 | 64 | 1006.9 |
| 20260509215803 | 70 | 107 | 4.3 | 7.0 | 0.00 | 0.00 | 0.00 | 64 | 1006.8 |
| 20260509215306 | 70 | 107 | 2.6 | 6.1 | 0.00 | 0.00 | 0.00 | 64 | 1006.8 |
| 20260509214803 | 70 | 128 | 2.6 | 5.2 | 0.00 | 0.00 | 0.00 | 63 | 1006.9 |
| 20260509214303 | 70 | 105 | 3.5 | 6.1 | 0.00 | 0.00 | 0.00 | 63 | 1007.0 |
| 20260509213803 | 71 | 101 | 2.6 | 6.1 | 0.00 | 0.00 | 0.00 | 63 | 1007.0 |
| 20260509213303 | 71 | 133 | 5.2 | 8.7 | 0.00 | 0.00 | 0.00 | 62 | 1006.9 |
| 20260509212804 | 71 | 118 | 5.2 | 7.8 | 0.00 | 0.00 | 0.00 | 62 | 1006.9 |
| 20260509212306 | 72 | 152 | 4.3 | 7.8 | 0.00 | 0.00 | 0.00 | 62 | 1006.9 |
| 20260509211804 | 72 | 105 | 5.2 | 7.8 | 0.00 | 0.00 | 0.00 | 62 | 1006.9 |
| 20260509211304 | 72 | 117 | 4.3 | 7.8 | 0.00 | 0.00 | 0.00 | 62 | 1006.8 |
| 20260509210805 | 72 | 135 | 2.6 | 7.8 | 0.00 | 0.00 | 0.00 | 61 | 1006.8 |
| 20260509210303 | 72 | 86 | 1.7 | 7.0 | 0.00 | 0.00 | 0.00 | 61 | 1006.7 |
| 20260509205803 | 72 | 151 | 5.2 | 7.8 | 0.00 | 0.00 | 0.00 | 61 | 1006.7 |
| 20260509205306 | 72 | 175 | 0.9 | 2.6 | 0.00 | 0.00 | 0.00 | 60 | 1006.7 |
| 20260509204803 | 72 | 93 | 0.9 | 2.6 | 0.00 | 0.00 | 0.00 | 60 | 1006.6 |
| 20260509203804 | 72 | 157 | 6.1 | 7.8 | 0.00 | 0.00 | 0.00 | 61 | 1006.7 |
| 20260509203304 | 72 | 133 | 4.3 | 10.4 | 0.00 | 0.00 | 0.00 | 61 | 1006.6 |
| 20260509202803 | 71 | 135 | 4.3 | 7.8 | 0.00 | 0.00 | 0.00 | 61 | 1006.6 |
| 20260509201303 | 71 | 105 | 4.3 | 7.8 | 0.00 | 0.00 | 0.00 | 61 | 1006.8 |
| 20260509200803 | 71 | 174 | 3.5 | 7.0 | 0.00 | 0.00 | 0.00 | 61 | 1006.9 |
| 20260509200303 | 71 | 108 | 2.6 | 6.1 | 0.00 | 0.00 | 0.00 | 62 | 1007.0 |
| 20260509195306 | 71 | 146 | 0.9 | 6.1 | 0.00 | 0.00 | 0.00 | 61 | 1007.2 |
| 20260509193803 | 70 | 148 | 4.3 | 7.0 | 0.00 | 0.00 | 0.00 | 60 | 1007.5 |
| 20260509193303 | 70 | 180 | 2.6 | 7.0 | 0.00 | 0.00 | 0.00 | 60 | 1007.6 |
| 20260509192804 | 70 | 174 | 1.7 | 4.3 | 0.00 | 0.00 | 0.00 | 59 | 1007.4 |
| 20260509192305 | 70 | 129 | 2.6 | 7.0 | 0.00 | 0.00 | 0.00 | 59 | 1007.5 |
| 20260509191803 | 70 | 142 | 2.6 | 4.3 | 0.00 | 0.00 | 0.00 | 60 | 1007.5 |
| 20260509191303 | 70 | 138 | 4.3 | 7.8 | 0.00 | 0.00 | 0.00 | 59 | 1007.6 |
| 20260509190803 | 70 | 132 | 4.3 | 7.0 | 0.00 | 0.00 | 0.00 | 58 | 1007.7 |
| 20260509190303 | 70 | 135 | 3.5 | 7.8 | 0.00 | 0.00 | 0.00 | 59 | 1007.9 |
| 20260509185803 | 69 | 136 | 3.5 | 7.0 | 0.00 | 0.00 | 0.00 | 60 | 1007.9 |
| 20260509185306 | 69 | 131 | 4.3 | 8.7 | 0.00 | 0.00 | 0.00 | 60 | 1007.8 |
| 20260509184804 | 69 | 126 | 3.5 | 5.2 | 0.00 | 0.00 | 0.00 | 60 | 1007.8 |
| 20260509184303 | 68 | 91 | 1.7 | 2.6 | 0.00 | 0.00 | 0.00 | 61 | 1008.0 |
| 20260509183803 | 68 | 26 | 1.7 | 2.6 | 0.00 | 0.00 | 0.00 | 61 | 1008.0 |
| 20260509183303 | 68 | 39 | 1.7 | 2.6 | 0.00 | 0.00 | 0.00 | 61 | 1008.0 |
| 20260509182803 | 68 | 46 | 1.7 | 4.3 | 0.00 | 0.00 | 0.00 | 62 | 1008.0 |
| 20260509182306 | 67 | 9 | 3.5 | 7.8 | 0.00 | 0.00 | 0.00 | 62 | 1008.1 |
| 20260509181803 | 67 | 26 | 1.7 | 4.3 | 0.00 | 0.00 | 0.00 | 62 | 1008.2 |
| 20260509180803 | 67 | 356 | 4.3 | 6.1 | 0.00 | 0.00 | 0.00 | 61 | 1008.5 |
| 20260509175803 | 68 | 4 | 4.3 | 7.8 | 0.00 | 0.00 | 0.00 | 61 | 1008.7 |
| 20260509175306 | 68 | 346 | 5.2 | 7.8 | 0.00 | 0.00 | 0.00 | 61 | 1008.7 |
| 20260509174304 | 67 | 314 | 1.7 | 2.6 | 0.00 | 0.00 | 0.00 | 62 | 1008.6 |
| 20260509173804 | 67 | 19 | 2.6 | 5.2 | 0.00 | 0.00 | 0.00 | 62 | 1008.6 |
| 20260509173303 | 67 | 346 | 3.5 | 6.1 | 0.00 | 0.00 | 0.00 | 62 | 1008.6 |
| 20260509172803 | 67 | 344 | 3.5 | 6.1 | 0.00 | 0.00 | 0.00 | 63 | 1008.6 |
| 20260509172306 | 67 | 326 | 1.7 | 6.1 | 0.00 | 0.00 | 0.00 | 64 | 1008.7 |
| 20260509171304 | 67 | 337 | 2.6 | 6.1 | 0.00 | 0.00 | 0.00 | 62 | 1008.7 |
| 20260509170803 | 67 | 306 | 3.5 | 5.2 | 0.00 | 0.00 | 0.00 | 62 | 1008.9 |
| 20260509170303 | 67 | 1 | 1.7 | 4.3 | 0.00 | 0.00 | 0.00 | 62 | 1008.8 |
| 20260509165306 | 68 | 7 | 0.9 | 2.6 | 0.00 | 0.00 | 0.00 | 61 | 1008.7 |
| 20260509163804 | 68 | 202 | 0.9 | 2.6 | 0.00 | 0.00 | 0.00 | 59 | 1008.9 |
| 20260509163303 | 68 | 229 | 2.6 | 8.7 | 0.00 | 0.00 | 0.00 | 59 | 1008.9 |
| 20260509162804 | 68 | 201 | 3.5 | 7.0 | 0.00 | 0.00 | 0.00 | 59 | 1008.8 |
| 20260509162307 | 68 | 193 | 3.5 | 8.7 | 0.00 | 0.00 | 0.00 | 59 | 1008.9 |
| 20260509161803 | 68 | 196 | 3.5 | 10.4 | 0.00 | 0.00 | 0.00 | 58 | 1008.9 |
| 20260509161304 | 68 | 221 | 3.5 | 10.4 | 0.00 | 0.00 | 0.00 | 58 | 1008.9 |
| 20260509160803 | 68 | 172 | 6.1 | 10.4 | 0.00 | 0.00 | 0.00 | 59 | 1009.1 |
| 20260509160303 | 68 | 214 | 4.3 | 10.4 | 0.00 | 0.00 | 0.00 | 59 | 1009.1 |
| 20260509155803 | 68 | 222 | 5.2 | 11.3 | 0.00 | 0.00 | 0.00 | 60 | 1009.1 |
| 20260509155306 | 68 | 194 | 5.2 | 11.3 | 0.00 | 0.00 | 0.00 | 58 | 1009.2 |
| 20260509154304 | 68 | 238 | 2.6 | 7.0 | 0.00 | 0.00 | 0.00 | 59 | 1009.1 |
| 20260509153804 | 68 | 216 | 3.5 | 7.8 | 0.00 | 0.00 | 0.00 | 59 | 1009.1 |
| 20260509153303 | 67 | 185 | 1.7 | 7.0 | 0.00 | 0.00 | 0.00 | 61 | 1009.2 |
| 20260509152803 | 67 | 181 | 4.3 | 8.7 | 0.00 | 0.00 | 0.00 | 61 | 1009.3 |
| 20260509152305 | 66 | 214 | 1.7 | 4.3 | 0.00 | 0.00 | 0.00 | 63 | 1009.3 |
| 20260509151803 | 65 | 163 | 2.6 | 5.2 | 0.00 | 0.00 | 0.00 | 62 | 1009.4 |
| 20260509150305 | 64 | 236 | 4.3 | 7.0 | 0.00 | 0.00 | 0.00 | 63 | 1009.7 |
| 20260509145803 | 63 | 197 | 2.6 | 7.8 | 0.00 | 0.00 | 0.00 | 64 | 1009.8 |
| 20260509145309 | 63 | 201 | 2.6 | 5.2 | 0.00 | 0.00 | 0.00 | 64 | 1009.9 |
| 20260509144809 | 63 | 216 | 4.3 | 7.8 | 0.00 | 0.00 | 0.00 | 63 | 1010.0 |
| 20260509144313 | 63 | 197 | 2.6 | 7.8 | 0.00 | 0.00 | 0.00 | 63 | 1010.0 |
| 20260509143322 | 63 | 206 | 3.5 | 7.0 | 0.00 | 0.00 | 0.00 | 62 | 1010.0 |
| 20260509142817 | 63 | 219 | 2.6 | 7.0 | 0.00 | 0.00 | 0.00 | 62 | 1010.0 |
| 20260509142306 | 63 | 221 | 2.6 | 7.0 | 0.00 | 0.00 | 0.00 | 63 | 1009.9 |
| 20260509141803 | 63 | 193 | 5.2 | 7.8 | 0.00 | 0.00 | 0.00 | 62 | 1009.8 |
| 20260509141304 | 63 | 193 | 4.3 | 8.7 | 0.00 | 0.00 | 0.00 | 62 | 1009.8 |
| 20260509140804 | 63 | 208 | 4.3 | 10.4 | 0.00 | 0.00 | 0.00 | 62 | 1009.8 |
| 20260509135803 | 63 | 192 | 1.7 | 4.3 | 0.00 | 0.00 | 0.00 | 64 | 1009.8 |
| 20260509135306 | 63 | 286 | 1.7 | 5.2 | 0.00 | 0.00 | 0.00 | 64 | 1009.8 |
| 20260509134803 | 62 | 248 | 1.7 | 6.1 | 0.00 | 0.00 | 0.00 | 64 | 1009.9 |
| 20260509133803 | 62 | 192 | 4.3 | 7.8 | 0.00 | 0.00 | 0.00 | 63 | 1009.8 |
| 20260509133303 | 62 | 227 | 3.5 | 7.8 | 0.00 | 0.00 | 0.00 | 63 | 1009.8 |
| 20260509132803 | 62 | 217 | 5.2 | 10.4 | 0.00 | 0.00 | 0.00 | 63 | 1009.9 |
| 20260509132306 | 62 | 194 | 5.2 | 10.4 | 0.00 | 0.00 | 0.00 | 63 | 1009.8 |
| 20260509131803 | 62 | 207 | 5.2 | 11.3 | 0.00 | 0.00 | 0.00 | 63 | 1009.8 |
| 20260509131303 | 62 | 221 | 4.3 | 10.4 | 0.00 | 0.00 | 0.00 | 63 | 1009.8 |
| 20260509130803 | 62 | 237 | 3.5 | 8.7 | 0.00 | 0.00 | 0.00 | 63 | 1009.7 |
| 20260509130304 | 62 | 238 | 2.6 | 7.8 | 0.00 | 0.00 | 0.00 | 64 | 1009.7 |
| 20260509124804 | 61 | 234 | 1.7 | 7.8 | 0.00 | 0.00 | 0.00 | 65 | 1009.7 |
| 20260509124303 | 60 | 228 | 1.7 | 6.1 | 0.00 | 0.00 | 0.00 | 65 | 1009.8 |
| 20260509123803 | 60 | 225 | 2.6 | 6.1 | 0.00 | 0.00 | 0.00 | 65 | 1009.7 |
| 20260509122804 | 60 | 211 | 1.7 | 5.2 | 0.00 | 0.00 | 0.00 | 66 | 1009.6 |
| 20260509121305 | 59 | 177 | 2.6 | 6.1 | 0.00 | 0.00 | 0.00 | 65 | 1009.6 |
| 20260509120803 | 59 | 184 | 2.6 | 7.0 | 0.00 | 0.00 | 0.00 | 65 | 1009.6 |
| 20260509120303 | 59 | 188 | 1.7 | 6.1 | 0.00 | 0.00 | 0.00 | 64 | 1009.6 |